YUNHAI 3-02

导读

YUNHAI 3-02(云海三号02星)是中国研制的人造卫星,于北京时间2024年3月27日6时51分,在太原卫星发射中心由长征六号甲运载火箭发射升空,卫星顺利进入预定轨道,发射任务取得圆满成功。该卫星主要用于开展大气海洋环境探测、空间环境探测、防灾减灾和科学试验等任务,将为我国科研与民生领域提供支持。

Basic Information
目录编号:
59343
目录名称:
YUNHAI 3-02
国际标识:
2024-058A
轨道中心:
EARTH
卫星名称:
YUNHAI 3-02
卫星全名:
--
卫星状态:
在轨 (已飞行811 天)
发射日期:
2024-03-26 UTC
国别 :
中国 (CN)
星等 :
--
Orbit Information
数据来源 国际轨道数据 AOE轨道数据
星历时间 2026-06-15T04:28:00+0800
5小时前
查看轨道信息
2026-06-10T02:00:00+0800
5天前
查看轨道信息
半长轴 7226.148km 7226.149km
偏心率 0.000171 0.0001895
轨道倾角 98.819° 98.818°
近地点辐角 62.887° 67.643°
升交点赤经 173.739° 168.708°
平近点角 297.248° 264.168°
近地点 846.775km 846.642km
远地点 849.247km 849.382km
周期 101.887分钟 101.887分钟
每日圈数 14.133265 14.133264
Detailed Information
使用方式:
暂无
2D Orbit Map
3D Orbit Map
Orbit Altitude Analysis Chart
Orbit Inclination Analysis Chart
Orbit Comprehensive Analysis Chart
View Comprehensive Chart